| time (UTC) | temp C | wind direction | speed KPH | gust KPH | rain 1hr cm | rain 24hr cm | rain mn cm | humidity % | barometer mb |
| 20260507085505 | 12 | 225 | 0.0 | 0.0 | 0.00 | 0.00 | 0.00 | 90 | 1016.4 |
| 20260507084505 | 12 | 225 | 0.0 | 0.0 | 0.00 | 0.00 | 0.00 | 90 | 1016.4 |
| 20260507084005 | 12 | 225 | 0.0 | 0.0 | 0.00 | 0.00 | 0.00 | 90 | 1016.4 |
| 20260507083504 | 12 | 225 | 0.0 | 0.0 | 0.00 | 0.00 | 0.00 | 90 | 1016.4 |
| 20260507083005 | 12 | 225 | 0.0 | 1.6 | 0.00 | 0.00 | 0.00 | 90 | 1016.5 |
| 20260507082505 | 12 | 225 | 1.6 | 3.2 | 0.00 | 0.00 | 0.00 | 90 | 1016.5 |
| 20260507082004 | 12 | 239 | 3.2 | 4.8 | 0.00 | 0.00 | 0.00 | 90 | 1016.5 |
| 20260507081505 | 12 | 248 | 3.2 | 4.8 | 0.00 | 0.00 | 0.00 | 90 | 1016.4 |
| 20260507081005 | 12 | 228 | 0.0 | 0.0 | 0.00 | 0.00 | 0.00 | 90 | 1016.4 |
| 20260507080005 | 12 | 228 | 0.0 | 1.6 | 0.00 | 0.00 | 0.00 | 90 | 1016.5 |
| 20260507075005 | 12 | 228 | 0.0 | 0.0 | 0.00 | 0.00 | 0.00 | 89 | 1016.4 |
| 20260507074505 | 12 | 228 | 0.0 | 0.0 | 0.00 | 0.00 | 0.00 | 89 | 1016.4 |
| 20260507074005 | 12 | 228 | 0.0 | 0.0 | 0.00 | 0.00 | 0.00 | 89 | 1016.5 |
| 20260507073505 | 12 | 228 | 0.0 | 0.0 | 0.00 | 0.00 | 0.00 | 90 | 1016.5 |
| 20260507073005 | 12 | 228 | 0.0 | 0.0 | 0.00 | 0.00 | 0.00 | 89 | 1016.5 |
| 20260507072505 | 12 | 228 | 0.0 | 1.6 | 0.00 | 0.00 | 0.00 | 90 | 1016.6 |
| 20260507072006 | 12 | 228 | 0.0 | 0.0 | 0.00 | 0.00 | 0.00 | 89 | 1016.6 |
| 20260507071505 | 12 | 228 | 0.0 | 0.0 | 0.00 | 0.00 | 0.00 | 89 | 1016.6 |
| 20260507071005 | 12 | 228 | 0.0 | 0.0 | 0.00 | 0.00 | 0.00 | 89 | 1016.7 |
| 20260507070009 | 12 | 228 | 0.0 | 0.0 | 0.00 | 0.00 | 0.00 | 89 | 1016.7 |
| 20260507065005 | 12 | 228 | 0.0 | 0.0 | 0.00 | 0.00 | 0.00 | 88 | 1016.7 |
| 20260507064505 | 12 | 228 | 0.0 | 0.0 | 0.00 | 0.00 | 0.00 | 88 | 1016.7 |
| 20260507064005 | 12 | 228 | 0.0 | 0.0 | 0.00 | 0.00 | 0.00 | 88 | 1016.8 |
| 20260507063504 | 12 | 228 | 0.0 | 1.6 | 0.00 | 0.00 | 0.00 | 88 | 1016.8 |
| 20260507063005 | 12 | 228 | 1.6 | 1.6 | 0.00 | 0.00 | 0.00 | 87 | 1016.8 |
| 20260507062005 | 13 | 228 | 0.0 | 1.6 | 0.00 | 0.00 | 0.00 | 87 | 1016.9 |
| 20260507061505 | 13 | 228 | 0.0 | 0.0 | 0.00 | 0.00 | 0.00 | 87 | 1016.8 |
| 20260507061005 | 13 | 228 | 0.0 | 0.0 | 0.00 | 0.00 | 0.00 | 87 | 1016.9 |
| 20260507060505 | 13 | 228 | 0.0 | 0.0 | 0.00 | 0.00 | 0.00 | 86 | 1016.9 |
| 20260507060004 | 13 | 228 | 0.0 | 1.6 | 0.00 | 0.00 | 0.00 | 86 | 1017.0 |
| 20260507055504 | 13 | 228 | 1.6 | 3.2 | 0.00 | 0.00 | 0.00 | 86 | 1016.9 |
| 20260507055005 | 13 | 228 | 0.0 | 1.6 | 0.00 | 0.00 | 0.00 | 86 | 1017.0 |
| 20260507054505 | 13 | 228 | 0.0 | 1.6 | 0.00 | 0.00 | 0.00 | 87 | 1016.9 |
| 20260507054004 | 13 | 228 | 0.0 | 1.6 | 0.00 | 0.00 | 0.00 | 86 | 1016.9 |
| 20260507053505 | 13 | 228 | 0.0 | 3.2 | 0.00 | 0.00 | 0.00 | 86 | 1016.9 |
| 20260507052505 | 13 | 228 | 0.0 | 0.0 | 0.00 | 0.00 | 0.00 | 86 | 1017.0 |
| 20260507051504 | 14 | 228 | 0.0 | 0.0 | 0.00 | 0.00 | 0.00 | 86 | 1016.9 |
| 20260507051005 | 14 | 228 | 0.0 | 4.8 | 0.00 | 0.00 | 0.00 | 86 | 1016.8 |
| 20260507050505 | 14 | 228 | 0.0 | 0.0 | 0.00 | 0.00 | 0.00 | 86 | 1016.8 |
| 20260507050005 | 14 | 228 | 0.0 | 3.2 | 0.00 | 0.00 | 0.00 | 86 | 1016.8 |
| 20260507045505 | 14 | 228 | 0.0 | 0.0 | 0.00 | 0.00 | 0.00 | 86 | 1016.9 |
| 20260507045004 | 14 | 228 | 1.6 | 4.8 | 0.00 | 0.00 | 0.00 | 86 | 1016.8 |
| 20260507044505 | 14 | 234 | 1.6 | 4.8 | 0.00 | 0.00 | 0.00 | 86 | 1016.7 |
| 20260507044004 | 14 | 221 | 1.6 | 4.8 | 0.00 | 0.00 | 0.00 | 85 | 1016.7 |
| 20260507043505 | 15 | 232 | 3.2 | 4.8 | 0.00 | 0.00 | 0.00 | 85 | 1016.6 |
| 20260507043005 | 15 | 222 | 3.2 | 4.8 | 0.00 | 0.00 | 0.00 | 85 | 1016.7 |
| 20260507042505 | 15 | 233 | 3.2 | 8.0 | 0.00 | 0.00 | 0.00 | 84 | 1016.7 |
| 20260507041504 | 15 | 209 | 3.2 | 4.8 | 0.00 | 0.00 | 0.00 | 84 | 1016.7 |
| 20260507041005 | 15 | 225 | 1.6 | 4.8 | 0.00 | 0.00 | 0.00 | 84 | 1016.7 |
| 20260507040505 | 15 | 209 | 1.6 | 8.0 | 0.00 | 0.00 | 0.00 | 83 | 1016.6 |
| 20260507035505 | 15 | 229 | 1.6 | 4.8 | 0.00 | 0.00 | 0.00 | 83 | 1016.5 |
| 20260507035004 | 15 | 238 | 1.6 | 8.0 | 0.00 | 0.00 | 0.00 | 82 | 1016.4 |
| 20260507034505 | 15 | 207 | 1.6 | 4.8 | 0.00 | 0.00 | 0.00 | 81 | 1016.4 |
| 20260507034005 | 16 | 135 | 4.8 | 8.0 | 0.00 | 0.00 | 0.00 | 80 | 1016.3 |
| 20260507033005 | 16 | 159 | 4.8 | 11.3 | 0.00 | 0.00 | 0.00 | 79 | 1016.3 |
| 20260507032505 | 16 | 122 | 3.2 | 8.0 | 0.00 | 0.00 | 0.00 | 78 | 1016.2 |
| 20260507032006 | 16 | 147 | 4.8 | 8.0 | 0.00 | 0.00 | 0.00 | 77 | 1016.1 |
| 20260507031504 | 16 | 161 | 0.0 | 3.2 | 0.00 | 0.00 | 0.00 | 77 | 1016.0 |
| 20260507031004 | 16 | 195 | 1.6 | 4.8 | 0.00 | 0.00 | 0.00 | 77 | 1016.0 |
| 20260507030006 | 16 | 173 | 1.6 | 4.8 | 0.00 | 0.00 | 0.00 | 78 | 1015.9 |
| 20260507025504 | 16 | 205 | 4.8 | 4.8 | 0.00 | 0.00 | 0.00 | 78 | 1015.8 |
| 20260507025004 | 16 | 206 | 3.2 | 8.0 | 0.00 | 0.00 | 0.00 | 78 | 1015.7 |
| 20260507024505 | 16 | 233 | 3.2 | 9.7 | 0.00 | 0.00 | 0.00 | 77 | 1015.7 |
| 20260507024005 | 16 | 206 | 4.8 | 11.3 | 0.00 | 0.00 | 0.00 | 77 | 1015.7 |
| 20260507023505 | 17 | 189 | 1.6 | 8.0 | 0.00 | 0.00 | 0.00 | 76 | 1015.7 |
| 20260507023005 | 17 | 203 | 4.8 | 9.7 | 0.00 | 0.00 | 0.00 | 75 | 1015.6 |
| 20260507022504 | 17 | 174 | 1.6 | 9.7 | 0.00 | 0.00 | 0.00 | 75 | 1015.5 |
| 20260507022004 | 17 | 176 | 4.8 | 12.9 | 0.00 | 0.00 | 0.00 | 74 | 1015.6 |
| 20260507021504 | 17 | 212 | 4.8 | 11.3 | 0.00 | 0.00 | 0.00 | 73 | 1015.6 |
| 20260507021005 | 17 | 147 | 1.6 | 9.7 | 0.00 | 0.00 | 0.00 | 73 | 1015.6 |
| 20260507020504 | 17 | 176 | 4.8 | 11.3 | 0.00 | 0.00 | 0.00 | 73 | 1015.6 |
| 20260507020005 | 18 | 208 | 6.4 | 11.3 | 0.00 | 0.00 | 0.00 | 70 | 1015.5 |
| 20260507015505 | 18 | 195 | 4.8 | 11.3 | 0.00 | 0.00 | 0.00 | 69 | 1015.4 |
| 20260507015005 | 18 | 153 | 3.2 | 11.3 | 0.00 | 0.00 | 0.00 | 68 | 1015.5 |
| 20260507014505 | 18 | 210 | 9.7 | 14.5 | 0.00 | 0.00 | 0.00 | 67 | 1015.4 |
| 20260507014005 | 18 | 198 | 3.2 | 12.9 | 0.00 | 0.00 | 0.00 | 67 | 1015.4 |
| 20260507013504 | 18 | 210 | 6.4 | 14.5 | 0.00 | 0.00 | 0.00 | 66 | 1015.4 |
| 20260507013005 | 18 | 240 | 4.8 | 19.3 | 0.00 | 0.00 | 0.00 | 66 | 1015.4 |
| 20260507012005 | 18 | 207 | 8.0 | 14.5 | 0.00 | 0.00 | 0.00 | 66 | 1015.4 |
| 20260507011504 | 18 | 191 | 8.0 | 12.9 | 0.00 | 0.00 | 0.00 | 65 | 1015.4 |
| 20260507010505 | 18 | 213 | 11.3 | 19.3 | 0.00 | 0.00 | 0.00 | 66 | 1015.5 |
| 20260507010005 | 18 | 203 | 4.8 | 16.1 | 0.00 | 0.00 | 0.00 | 66 | 1015.5 |
| 20260507005505 | 18 | 209 | 9.7 | 19.3 | 0.00 | 0.00 | 0.00 | 64 | 1015.6 |
| 20260507005004 | 19 | 255 | 6.4 | 19.3 | 0.00 | 0.00 | 0.00 | 64 | 1015.6 |
| 20260507003505 | 18 | 230 | 8.0 | 19.3 | 0.00 | 0.00 | 0.00 | 63 | 1015.6 |
| 20260507003005 | 19 | 198 | 9.7 | 19.3 | 0.00 | 0.00 | 0.00 | 62 | 1015.6 |
| 20260507002004 | 19 | 228 | 8.0 | 24.1 | 0.00 | 0.00 | 0.00 | 62 | 1015.6 |
| 20260507001505 | 18 | 245 | 14.5 | 24.1 | 0.00 | 0.00 | 0.00 | 61 | 1015.6 |
| 20260507001005 | 19 | 244 | 11.3 | 20.9 | 0.00 | 0.00 | 0.00 | 61 | 1015.6 |
| 20260506235504 | 19 | 207 | 11.3 | 25.7 | 0.00 | 0.00 | 0.00 | 61 | 1015.6 |
| 20260506235005 | 20 | 226 | 9.7 | 22.5 | 0.00 | 0.00 | 0.00 | 61 | 1015.6 |
| 20260506234504 | 19 | 212 | 9.7 | 22.5 | 0.00 | 0.00 | 0.00 | 62 | 1015.5 |
| 20260506234004 | 19 | 205 | 11.3 | 20.9 | 0.00 | 0.00 | 0.00 | 62 | 1015.5 |
| 20260506233505 | 19 | 209 | 12.9 | 24.1 | 0.00 | 0.00 | 0.00 | 60 | 1015.5 |
| 20260506233005 | 20 | 248 | 12.9 | 22.5 | 0.00 | 0.00 | 0.00 | 60 | 1015.6 |
| 20260506232504 | 20 | 235 | 14.5 | 22.5 | 0.00 | 0.00 | 0.00 | 61 | 1015.7 |
| 20260506232005 | 20 | 234 | 14.5 | 22.5 | 0.00 | 0.00 | 0.00 | 61 | 1015.7 |
| 20260506231504 | 20 | 214 | 14.5 | 24.1 | 0.00 | 0.00 | 0.00 | 60 | 1015.8 |
| 20260506231004 | 19 | 217 | 12.9 | 20.9 | 0.00 | 0.00 | 0.00 | 61 | 1015.7 |
| 20260506230505 | 20 | 226 | 14.5 | 25.7 | 0.00 | 0.00 | 0.00 | 60 | 1015.8 |
| 20260506225506 | 20 | 213 | 11.3 | 22.5 | 0.00 | 0.00 | 0.00 | 61 | 1015.9 |
| 20260506225004 | 20 | 229 | 14.5 | 22.5 | 0.00 | 0.00 | 0.00 | 61 | 1016.0 |
| 20260506224504 | 20 | 201 | 14.5 | 22.5 | 0.00 | 0.00 | 0.00 | 61 | 1016.0 |
| 20260506224004 | 20 | 232 | 16.1 | 24.1 | 0.00 | 0.00 | 0.00 | 61 | 1016.0 |
| 20260506223504 | 20 | 215 | 11.3 | 20.9 | 0.00 | 0.00 | 0.00 | 60 | 1016.1 |
| 20260506222504 | 20 | 229 | 14.5 | 22.5 | 0.00 | 0.00 | 0.00 | 61 | 1016.2 |
| 20260506222005 | 20 | 228 | 16.1 | 25.7 | 0.00 | 0.00 | 0.00 | 62 | 1016.3 |
| 20260506221505 | 20 | 223 | 12.9 | 20.9 | 0.00 | 0.00 | 0.00 | 61 | 1016.4 |
| 20260506221005 | 20 | 216 | 12.9 | 24.1 | 0.00 | 0.00 | 0.00 | 63 | 1016.4 |
| 20260506220506 | 20 | 214 | 11.3 | 25.7 | 0.00 | 0.00 | 0.00 | 62 | 1016.6 |
| 20260506220005 | 20 | 223 | 9.7 | 20.9 | 0.00 | 0.00 | 0.00 | 62 | 1016.7 |
| 20260506215504 | 20 | 206 | 12.9 | 29.0 | 0.00 | 0.00 | 0.00 | 62 | 1016.7 |
| 20260506215006 | 20 | 198 | 9.7 | 24.1 | 0.00 | 0.00 | 0.00 | 61 | 1016.6 |
| 20260506214505 | 20 | 213 | 11.3 | 20.9 | 0.00 | 0.00 | 0.00 | 61 | 1016.7 |
| 20260506213004 | 21 | 242 | 11.3 | 22.5 | 0.00 | 0.00 | 0.00 | 61 | 1016.9 |
| 20260506212504 | 21 | 218 | 14.5 | 24.1 | 0.00 | 0.00 | 0.00 | 61 | 1016.9 |
| 20260506212004 | 21 | 244 | 11.3 | 22.5 | 0.00 | 0.00 | 0.00 | 61 | 1016.9 |
| 20260506210504 | 20 | 198 | 14.5 | 24.1 | 0.00 | 0.00 | 0.00 | 61 | 1017.0 |
| 20260506205505 | 20 | 204 | 8.0 | 19.3 | 0.00 | 0.00 | 0.00 | 60 | 1017.1 |
| 20260506205004 | 20 | 221 | 9.7 | 24.1 | 0.00 | 0.00 | 0.00 | 61 | 1017.1 |
| 20260506204504 | 20 | 226 | 9.7 | 24.1 | 0.00 | 0.00 | 0.00 | 61 | 1017.1 |
| 20260506204004 | 20 | 206 | 12.9 | 25.7 | 0.00 | 0.00 | 0.00 | 62 | 1017.2 |
| 20260506203504 | 20 | 231 | 11.3 | 19.3 | 0.00 | 0.00 | 0.00 | 61 | 1017.2 |
| 20260506203004 | 20 | 191 | 11.3 | 19.3 | 0.00 | 0.00 | 0.00 | 63 | 1017.3 |
| 20260506202505 | 20 | 165 | 8.0 | 19.3 | 0.00 | 0.00 | 0.00 | 65 | 1017.4 |
| 20260506202004 | 20 | 241 | 14.5 | 24.1 | 0.00 | 0.00 | 0.00 | 63 | 1017.4 |
| 20260506201504 | 20 | 230 | 9.7 | 16.1 | 0.00 | 0.00 | 0.00 | 64 | 1017.4 |
| 20260506201004 | 20 | 211 | 11.3 | 19.3 | 0.00 | 0.00 | 0.00 | 65 | 1017.4 |
| 20260506200506 | 19 | 247 | 11.3 | 22.5 | 0.00 | 0.00 | 0.00 | 65 | 1017.4 |
| 20260506195504 | 20 | 191 | 8.0 | 19.3 | 0.00 | 0.00 | 0.00 | 66 | 1017.5 |
| 20260506194004 | 20 | 205 | 11.3 | 20.9 | 0.00 | 0.00 | 0.00 | 65 | 1017.6 |
| 20260506193505 | 20 | 226 | 12.9 | 22.5 | 0.00 | 0.00 | 0.00 | 65 | 1017.6 |
| 20260506193004 | 20 | 212 | 11.3 | 19.3 | 0.00 | 0.00 | 0.00 | 65 | 1017.7 |
| 20260506192505 | 19 | 253 | 11.3 | 19.3 | 0.00 | 0.00 | 0.00 | 66 | 1017.7 |
| 20260506192004 | 19 | 218 | 11.3 | 19.3 | 0.00 | 0.00 | 0.00 | 65 | 1017.7 |
| 20260506191504 | 19 | 205 | 8.0 | 16.1 | 0.00 | 0.00 | 0.00 | 67 | 1017.8 |
| 20260506191004 | 20 | 190 | 9.7 | 20.9 | 0.00 | 0.00 | 0.00 | 65 | 1017.8 |
| 20260506190504 | 19 | 203 | 8.0 | 19.3 | 0.00 | 0.00 | 0.00 | 66 | 1017.9 |
| 20260506190005 | 19 | 232 | 11.3 | 24.1 | 0.00 | 0.00 | 0.00 | 66 | 1017.9 |
| 20260506185504 | 19 | 227 | 14.5 | 24.1 | 0.00 | 0.00 | 0.00 | 66 | 1017.9 |
| 20260506185004 | 19 | 227 | 6.4 | 20.9 | 0.00 | 0.00 | 0.00 | 67 | 1017.8 |
| 20260506184504 | 19 | 208 | 8.0 | 19.3 | 0.00 | 0.00 | 0.00 | 66 | 1017.9 |
| 20260506184005 | 19 | 203 | 9.7 | 20.9 | 0.00 | 0.00 | 0.00 | 66 | 1018.0 |
| 20260506183005 | 18 | 233 | 12.9 | 22.5 | 0.00 | 0.00 | 0.00 | 66 | 1018.0 |
| 20260506182504 | 19 | 209 | 9.7 | 20.9 | 0.00 | 0.00 | 0.00 | 66 | 1018.0 |
| 20260506181504 | 19 | 235 | 9.7 | 19.3 | 0.00 | 0.00 | 0.00 | 65 | 1018.0 |
| 20260506181004 | 19 | 205 | 9.7 | 19.3 | 0.00 | 0.00 | 0.00 | 64 | 1018.1 |
| 20260506180504 | 19 | 241 | 11.3 | 20.9 | 0.00 | 0.00 | 0.00 | 62 | 1018.1 |
| 20260506180005 | 18 | 198 | 8.0 | 14.5 | 0.00 | 0.00 | 0.00 | 62 | 1018.1 |
| 20260506175504 | 18 | 218 | 8.0 | 16.1 | 0.00 | 0.00 | 0.00 | 63 | 1018.0 |
| 20260506175005 | 18 | 280 | 4.8 | 14.5 | 0.00 | 0.00 | 0.00 | 63 | 1018.0 |
| 20260506173504 | 18 | 178 | 6.4 | 14.5 | 0.00 | 0.00 | 0.00 | 62 | 1018.1 |
| 20260506172506 | 18 | 208 | 4.8 | 14.5 | 0.00 | 0.00 | 0.00 | 64 | 1018.1 |
| 20260506172004 | 18 | 227 | 9.7 | 16.1 | 0.00 | 0.00 | 0.00 | 64 | 1018.1 |
| 20260506171005 | 18 | 211 | 3.2 | 11.3 | 0.00 | 0.00 | 0.00 | 67 | 1018.0 |
| 20260506170504 | 17 | 209 | 6.4 | 14.5 | 0.00 | 0.00 | 0.00 | 67 | 1018.0 |
| 20260506165505 | 17 | 241 | 4.8 | 16.1 | 0.00 | 0.00 | 0.00 | 69 | 1018.1 |
| 20260506164505 | 17 | 237 | 8.0 | 16.1 | 0.00 | 0.00 | 0.00 | 68 | 1018.1 |
| 20260506164004 | 17 | 228 | 9.7 | 14.5 | 0.00 | 0.00 | 0.00 | 69 | 1018.1 |
| 20260506163505 | 17 | 211 | 8.0 | 16.1 | 0.00 | 0.00 | 0.00 | 69 | 1018.1 |
| 20260506163005 | 16 | 244 | 9.7 | 14.5 | 0.00 | 0.00 | 0.00 | 70 | 1018.2 |
| 20260506162504 | 17 | 213 | 8.0 | 16.1 | 0.00 | 0.00 | 0.00 | 69 | 1018.2 |
| 20260506162005 | 17 | 215 | 8.0 | 12.9 | 0.00 | 0.00 | 0.00 | 69 | 1018.2 |
| 20260506161504 | 17 | 237 | 6.4 | 11.3 | 0.00 | 0.00 | 0.00 | 70 | 1018.1 |
| 20260506161005 | 16 | 224 | 3.2 | 11.3 | 0.00 | 0.00 | 0.00 | 71 | 1018.1 |
| 20260506160505 | 16 | 175 | 3.2 | 8.0 | 0.00 | 0.00 | 0.00 | 71 | 1018.1 |
| 20260506160004 | 16 | 171 | 3.2 | 8.0 | 0.00 | 0.00 | 0.00 | 71 | 1018.0 |
| 20260506155504 | 16 | 183 | 1.6 | 4.8 | 0.00 | 0.00 | 0.00 | 71 | 1018.1 |
| 20260506155005 | 16 | 211 | 1.6 | 4.8 | 0.00 | 0.00 | 0.00 | 70 | 1018.1 |
| 20260506154504 | 16 | 97 | 1.6 | 3.2 | 0.00 | 0.00 | 0.00 | 73 | 1018.0 |
| 20260506154004 | 15 | 123 | 1.6 | 4.8 | 0.00 | 0.00 | 0.00 | 71 | 1018.0 |
| 20260506153504 | 16 | 103 | 3.2 | 4.8 | 0.00 | 0.00 | 0.00 | 71 | 1018.0 |
| 20260506153006 | 16 | 90 | 3.2 | 4.8 | 0.00 | 0.00 | 0.00 | 72 | 1018.0 |
| 20260506152004 | 15 | 106 | 3.2 | 4.8 | 0.00 | 0.00 | 0.00 | 73 | 1018.1 |
| 20260506151504 | 16 | 93 | 3.2 | 4.8 | 0.00 | 0.00 | 0.00 | 72 | 1018.1 |
| 20260506151005 | 15 | 82 | 3.2 | 4.8 | 0.00 | 0.00 | 0.00 | 73 | 1018.1 |
| 20260506150004 | 15 | 103 | 3.2 | 4.8 | 0.00 | 0.00 | 0.00 | 75 | 1018.1 |
| 20260506145505 | 14 | 97 | 1.6 | 4.8 | 0.00 | 0.00 | 0.00 | 76 | 1018.0 |
| 20260506145004 | 14 | 95 | 1.6 | 4.8 | 0.00 | 0.00 | 0.00 | 78 | 1018.0 |
| 20260506144505 | 13 | 77 | 3.2 | 9.7 | 0.00 | 0.00 | 0.00 | 79 | 1018.0 |
| 20260506144004 | 13 | 78 | 1.6 | 4.8 | 0.00 | 0.00 | 0.00 | 80 | 1017.9 |
| 20260506143005 | 13 | 64 | 3.2 | 3.2 | 0.00 | 0.00 | 0.00 | 83 | 1017.9 |
| 20260506142504 | 12 | 76 | 1.6 | 4.8 | 0.00 | 0.00 | 0.00 | 83 | 1017.8 |
| 20260506142004 | 12 | 57 | 0.0 | 3.2 | 0.00 | 0.00 | 0.00 | 84 | 1017.8 |
| 20260506141504 | 12 | 57 | 0.0 | 0.0 | 0.00 | 0.00 | 0.00 | 83 | 1017.8 |
| 20260506140505 | 12 | 57 | 0.0 | 1.6 | 0.00 | 0.00 | 0.00 | 84 | 1017.7 |
| 20260506140005 | 12 | 57 | 1.6 | 3.2 | 0.00 | 0.00 | 0.00 | 84 | 1017.7 |
| 20260506135504 | 11 | 57 | 3.2 | 4.8 | 0.00 | 0.00 | 0.00 | 85 | 1017.7 |
| 20260506135004 | 11 | 57 | 3.2 | 4.8 | 0.00 | 0.00 | 0.00 | 85 | 1017.7 |
| 20260506134505 | 11 | 61 | 3.2 | 4.8 | 0.00 | 0.00 | 0.00 | 85 | 1017.7 |
| 20260506134005 | 11 | 31 | 0.0 | 3.2 | 0.00 | 0.00 | 0.00 | 85 | 1017.7 |
| 20260506133004 | 10 | 31 | 1.6 | 3.2 | 0.00 | 0.00 | 0.00 | 85 | 1017.7 |
| 20260506132505 | 10 | 31 | 0.0 | 3.2 | 0.00 | 0.00 | 0.00 | 85 | 1017.7 |
| 20260506132005 | 10 | 34 | 1.6 | 3.2 | 0.00 | 0.00 | 0.00 | 85 | 1017.7 |
| 20260506131504 | 11 | 69 | 0.0 | 0.0 | 0.00 | 0.00 | 0.00 | 84 | 1017.5 |
| 20260506131004 | 11 | 69 | 0.0 | 1.6 | 0.00 | 0.00 | 0.00 | 83 | 1017.5 |
| 20260506130504 | 11 | 69 | 0.0 | 0.0 | 0.00 | 0.00 | 0.00 | 83 | 1017.5 |
| 20260506130005 | 11 | 69 | 1.6 | 3.2 | 0.00 | 0.00 | 0.00 | 83 | 1017.4 |
| 20260506125504 | 11 | 69 | 0.0 | 4.8 | 0.00 | 0.00 | 0.00 | 82 | 1017.4 |
| 20260506125004 | 11 | 69 | 3.2 | 4.8 | 0.00 | 0.00 | 0.00 | 82 | 1017.2 |
| 20260506124005 | 11 | 69 | 3.2 | 4.8 | 0.00 | 0.00 | 0.00 | 81 | 1017.2 |
| 20260506123005 | 12 | 73 | 1.6 | 4.8 | 0.00 | 0.00 | 0.00 | 81 | 1017.1 |
| 20260506122504 | 12 | 60 | 3.2 | 4.8 | 0.00 | 0.00 | 0.00 | 81 | 1017.0 |
| 20260506122004 | 12 | 62 | 1.6 | 4.8 | 0.00 | 0.00 | 0.00 | 80 | 1016.9 |
| 20260506121504 | 12 | 55 | 4.8 | 8.0 | 0.00 | 0.00 | 0.00 | 81 | 1016.8 |
| 20260506121006 | 12 | 56 | 4.8 | 9.7 | 0.00 | 0.00 | 0.00 | 81 | 1016.8 |
| 20260506120504 | 12 | 60 | 3.2 | 8.0 | 0.00 | 0.00 | 0.00 | 81 | 1016.8 |
| 20260506120006 | 12 | 49 | 4.8 | 8.0 | 0.00 | 0.00 | 0.00 | 81 | 1016.8 |
| 20260506115004 | 12 | 75 | 4.8 | 9.7 | 0.00 | 0.00 | 0.00 | 82 | 1016.8 |
| 20260506114005 | 12 | 69 | 4.8 | 9.7 | 0.00 | 0.00 | 0.00 | 82 | 1016.8 |
| 20260506113506 | 12 | 62 | 3.2 | 4.8 | 0.00 | 0.00 | 0.00 | 83 | 1016.8 |
| 20260506113004 | 12 | 58 | 4.8 | 8.0 | 0.00 | 0.00 | 0.00 | 83 | 1016.8 |
| 20260506112504 | 12 | 64 | 3.2 | 4.8 | 0.00 | 0.00 | 0.00 | 83 | 1016.8 |
| 20260506112004 | 12 | 54 | 3.2 | 4.8 | 0.00 | 0.00 | 0.00 | 84 | 1016.8 |
| 20260506111504 | 12 | 54 | 3.2 | 4.8 | 0.00 | 0.00 | 0.00 | 84 | 1016.9 |
| 20260506111005 | 12 | 38 | 4.8 | 8.0 | 0.00 | 0.00 | 0.00 | 84 | 1016.8 |
| 20260506110504 | 12 | 42 | 3.2 | 8.0 | 0.00 | 0.00 | 0.00 | 84 | 1016.8 |
| 20260506105504 | 12 | 30 | 4.8 | 11.3 | 0.00 | 0.00 | 0.00 | 84 | 1016.8 |
| 20260506105004 | 12 | 44 | 4.8 | 4.8 | 0.00 | 0.00 | 0.00 | 84 | 1016.8 |
| 20260506104504 | 12 | 63 | 3.2 | 4.8 | 0.00 | 0.00 | 0.00 | 84 | 1016.7 |
| 20260506104004 | 12 | 66 | 3.2 | 4.8 | 0.00 | 0.00 | 0.00 | 84 | 1016.7 |
| 20260506103504 | 12 | 59 | 4.8 | 11.3 | 0.00 | 0.00 | 0.00 | 84 | 1016.6 |
| 20260506103004 | 12 | 72 | 4.8 | 9.7 | 0.00 | 0.00 | 0.00 | 84 | 1016.6 |
| 20260506102504 | 12 | 71 | 4.8 | 11.3 | 0.00 | 0.00 | 0.00 | 84 | 1016.7 |
| 20260506101504 | 11 | 61 | 4.8 | 8.0 | 0.00 | 0.00 | 0.00 | 85 | 1016.8 |
| 20260506101004 | 11 | 74 | 8.0 | 11.3 | 0.00 | 0.00 | 0.00 | 85 | 1016.8 |
| 20260506100505 | 11 | 62 | 8.0 | 11.3 | 0.00 | 0.00 | 0.00 | 85 | 1016.7 |
| 20260506100004 | 11 | 70 | 4.8 | 11.3 | 0.00 | 0.00 | 0.00 | 85 | 1016.7 |
| 20260506095505 | 11 | 69 | 3.2 | 4.8 | 0.00 | 0.00 | 0.00 | 85 | 1016.8 |
| 20260506095005 | 11 | 71 | 1.6 | 3.2 | 0.00 | 0.00 | 0.00 | 85 | 1016.9 |
| 20260506094504 | 11 | 71 | 0.0 | 0.0 | 0.00 | 0.00 | 0.00 | 85 | 1017.0 |
| 20260506094004 | 11 | 71 | 0.0 | 3.2 | 0.00 | 0.00 | 0.00 | 85 | 1017.0 |
| 20260506092504 | 12 | 65 | 0.0 | 3.2 | 0.00 | 0.00 | 0.00 | 85 | 1017.0 |
| 20260506092005 | 12 | 65 | 0.0 | 3.2 | 0.00 | 0.00 | 0.00 | 85 | 1017.0 |
| 20260506090505 | 12 | 65 | 3.2 | 4.8 | 0.00 | 0.00 | 0.00 | 86 | 1017.2 |
| 20260506090006 | 12 | 72 | 3.2 | 4.8 | 0.00 | 0.00 | 0.00 | 85 | 1017.2 |